logo tempoitalia

Diretta Meteo Syros, Grecialunedì 31 agosto ore 08:20

Mappa
Sereno 25 °C Sereno 24 Ore: T.min 25 T.max 29
Ponente Nord/Nord-Est Km/h 24 Punto di rugiada: 20 °C Umidità: 73% Visibilità: 0 Km
Il sole sorge alle: 06:49 Il sole tramonta alle: 19:51
31 Agosto 2026 08:20 tempo osservato: Sereno Sereno 25 73 1015 vento: Nord N/NE 24
31 Agosto 2026 07:50 tempo osservato: Sereno Sereno 25 69 1015 vento: Nord N 22.2
31 Agosto 2026 07:20 tempo osservato: Sereno Sereno 25 65 1014 vento: Nord N 20.3
31 Agosto 2026 06:50 tempo osservato: Sereno Sereno 25 65 1014 vento: Nord N 16.7
31 Agosto 2026 06:20 tempo osservato: Sereno Sereno 25 69 1014 vento: Nord NE 11.1
31 Agosto 2026 05:50 tempo osservato: Sereno Sereno 25 65 1015 vento: Nord N 9.3
31 Agosto 2026 05:20 tempo osservato: Sereno Sereno 25 65 1015 vento: Nord N 14.8
31 Agosto 2026 04:50 tempo osservato: Sereno Sereno 25 57 1015 vento: Nord N 5.5
31 Agosto 2026 04:20 tempo osservato: Sereno Sereno 25 57 1015 vento: Nord N 5.5
31 Agosto 2026 03:50 tempo osservato: Sereno Sereno 25 57 1015 vento: Nord O 7.4
31 Agosto 2026 03:20 tempo osservato: Sereno Sereno 25 61 1015 vento: Nord N 3.7
31 Agosto 2026 02:50 tempo osservato: Sereno Sereno 26 61 1015 vento: Nord N 13
31 Agosto 2026 02:20 tempo osservato: Sereno Sereno 26 57 1015 vento: Nord N 13
31 Agosto 2026 01:50 tempo osservato: Sereno Sereno 26 50 1015 vento: Nord NO 13
31 Agosto 2026 01:20 tempo osservato: Sereno Sereno 27 47 1015 vento: Nord N/NO 22.2
31 Agosto 2026 00:50 tempo osservato: Sereno Sereno 27 47 1015 vento: Nord N/NO 25.9
31 Agosto 2026 00:20 tempo osservato: Sereno Sereno 26 50 1015 vento: Nord NO 14.8
30 Agosto 2026 23:50 tempo osservato: Sereno Sereno 26 54 1015 vento: Nord N/NE 14.8
30 Agosto 2026 23:20 tempo osservato: Sereno Sereno 26 50 1015 vento: Nord N 22.2
30 Agosto 2026 22:50 tempo osservato: Sereno Sereno 26 54 1015 vento: Nord N 20.3
30 Agosto 2026 22:20 tempo osservato: Sereno Sereno 26 54 1015 vento: Nord N/NE 14.8
30 Agosto 2026 21:50 tempo osservato: Sereno Sereno 26 54 1015 vento: Nord N 22.2
30 Agosto 2026 21:20 tempo osservato: Sereno Sereno 27 44 1015 vento: Nord N 24
30 Agosto 2026 20:50 tempo osservato: Sereno Sereno 26 61 1015 vento: Nord N 11.1
30 Agosto 2026 20:20 tempo osservato: Sereno Sereno 26 54 1014 vento: Nord N 24
30 Agosto 2026 19:50 tempo osservato: Sereno Sereno 26 57 1014 vento: Nord N/NE 27.8
30 Agosto 2026 19:20 tempo osservato: Sereno Sereno 26 61 1014 vento: Nord N/NE 27.8
30 Agosto 2026 18:50 tempo osservato: Sereno Sereno 26 65 1014 vento: Nord N 22.2
30 Agosto 2026 18:20 tempo osservato: Sereno Sereno 26 61 1014 vento: Nord N 29.6
30 Agosto 2026 17:50 tempo osservato: Sereno Sereno 27 57 1014 vento: Nord N/NE 24
30 Agosto 2026 17:20 tempo osservato: Sereno Sereno 28 51 1014 vento: Nord N 22.2
30 Agosto 2026 16:50 tempo osservato: Sereno Sereno 28 51 1014 vento: Nord N 22.2
30 Agosto 2026 15:50 tempo osservato: Sereno Sereno 29 45 1015 vento: Nord N 20.3
30 Agosto 2026 14:50 tempo osservato: Sereno Sereno 28 51 1015 vento: Nord N/NO 16.7
30 Agosto 2026 13:50 tempo osservato: Sereno Sereno 28 58 1015 vento: Nord N 22.2
30 Agosto 2026 12:50 tempo osservato: Sereno Sereno 28 58 1015 vento: Nord N 27.8
30 Agosto 2026 11:50 tempo osservato: Sereno Sereno 28 54 1016 vento: Nord N 20.3
30 Agosto 2026 10:50 tempo osservato: Sereno Sereno 27 57 1015 vento: Nord N 20.3
30 Agosto 2026 09:50 tempo osservato: Sereno Sereno 28 48 1015 vento: Nord N 16.7
30 Agosto 2026 08:50 tempo osservato: Sereno Sereno 27 44 1015 vento: Nord N/NO 18.5